DW8923 Weather Reports


time (UTC)temp
C
wind
direction
speed
KPH
gust
KPH
rain 1hr
cm
rain 24hr
cm
rain mn
cm
humidity
%
barometer
mb
20260904030020 27 134 3.2 14.5 0.00 0.00 0.00 74 1010.6
20260904024516 27 123 8.0 19.3 0.00 0.00 0.00 73 1010.4
20260904023013 27 175 9.7 22.5 0.00 0.00 0.00 72 1010.2
20260904021521 27 136 4.8 12.9 0.00 0.00 0.00 70 1010.2
20260904020012 28 132 4.8 14.5 0.00 0.00 0.00 70 1009.9
20260904014511 28 122 6.4 14.5 0.00 0.00 0.00 69 1009.6
20260904013011 28 144 8.0 17.7 0.00 0.00 0.00 69 1009.6
20260904011510 28 133 11.3 20.9 0.00 0.00 0.00 68 1009.6
20260904010010 28 141 8.0 20.9 0.00 0.00 0.00 68 1009.5
20260904004509 29 131 9.7 20.9 0.00 0.00 0.00 67 1009.3
20260904003008 30 102 11.3 19.3 0.00 0.00 0.00 66 1009.3
20260904001508 30 119 11.3 20.9 0.00 0.00 0.00 66 1009.2
20260904000007 30 115 11.3 29.0 0.00 0.00 0.00 66 1009.1
20260903234517 31 140 9.7 24.1 0.00 0.00 0.00 66 1009.0
20260903233005 31 93 12.9 25.7 0.00 0.00 0.00 64 1008.8
20260903231504 32 145 16.1 30.6 0.00 0.00 0.00 64 1008.8
20260903230008 32 126 12.9 25.7 0.00 0.00 0.00 64 1008.5
20260903224508 33 102 11.3 25.7 0.00 0.00 0.00 61 1008.4
20260903223002 33 138 9.7 29.0 0.00 0.00 0.00 58 1008.3
20260903221502 34 71 11.3 22.5 0.00 0.00 0.00 57 1008.3
20260903220120 35 92 12.9 24.1 0.00 0.00 0.00 55 1008.2
20260903214559 33 111 6.4 19.3 0.00 0.00 0.00 55 1008.3
20260903213157 34 132 9.7 22.5 0.00 0.00 0.00 55 1008.5
20260903211602 35 136 8.0 20.9 0.00 0.00 0.00 55 1008.5
20260903210105 34 98 9.7 22.5 0.00 0.00 0.00 55 1008.6
20260903204553 35 69 8.0 17.7 0.00 0.00 0.00 54 1008.7
20260903203050 35 136 8.0 17.7 0.00 0.00 0.00 54 1009.1
20260903201547 35 71 4.8 12.9 0.00 0.00 0.00 51 1009.4
20260903200044 35 153 4.8 11.3 0.00 0.00 0.00 55 1009.5
20260903194540 33 126 4.8 14.5 0.00 0.00 0.00 57 1009.7
20260903193036 33 47 4.8 11.3 0.00 0.00 0.00 57 1009.9
20260903191546 33 117 3.2 11.3 0.00 0.00 0.00 58 1010.1
20260903190029 32 76 3.2 12.9 0.00 0.00 0.00 59 1010.4
20260903184540 32 109 4.8 14.5 0.00 0.00 0.00 59 1010.6
20260903183028 32 109 3.2 8.0 0.00 0.00 0.00 59 1010.9
20260903181526 32 108 3.2 12.9 0.00 0.00 0.00 60 1011.0
20260903180031 32 49 4.8 11.3 0.00 0.00 0.00 60 1011.2
20260903174519 31 127 1.6 9.7 0.00 0.00 0.00 64 1011.5
20260903173020 31 107 3.2 9.7 0.00 0.00 0.00 64 1011.7
20260903171515 31 128 3.2 9.7 0.00 0.00 0.00 64 1011.8
20260903170013 31 119 3.2 11.3 0.00 0.00 0.00 65 1011.9
20260903164510 31 150 4.8 11.3 0.00 0.00 0.00 66 1011.6
20260903163008 30 193 4.8 17.7 0.00 0.00 0.00 66 1011.5
20260903161505 30 194 8.0 17.7 0.00 0.00 0.00 67 1011.5
20260903160002 30 159 4.8 17.7 0.00 0.00 0.00 69 1011.5
20260903154559 29 182 8.0 16.1 0.00 0.00 0.00 71 1011.3
20260903153056 28 140 4.8 12.9 0.00 0.00 0.00 74 1011.2
20260903151554 28 185 6.4 17.7 0.00 0.00 0.00 75 1011.2
20260903150054 28 207 4.8 16.1 0.00 0.00 0.00 77 1011.3
20260903144550 28 115 3.2 12.9 0.00 0.00 0.00 79 1011.3
20260903143105 27 182 6.4 14.5 0.00 0.00 0.00 80 1011.4
20260903141544 27 190 6.4 12.9 0.00 0.00 0.00 82 1011.2
20260903140044 27 163 4.8 9.7 0.00 0.00 0.00 84 1011.3
20260903134542 26 177 3.2 12.9 0.00 0.00 0.00 85 1011.3
20260903133041 26 175 4.8 16.1 0.00 0.00 0.00 86 1011.3
20260903131548 26 127 4.8 16.1 0.00 0.00 0.00 86 1011.3
20260903130038 26 158 4.8 12.9 0.00 0.00 0.00 87 1011.3
20260903124540 26 163 3.2 16.1 0.00 0.00 0.00 88 1011.1
20260903123041 26 196 4.8 12.9 0.00 0.00 0.00 88 1011.1
20260903121536 26 167 3.2 17.7 0.00 0.00 0.00 88 1011.0
20260903120038 26 171 3.2 17.7 0.00 0.00 0.00 87 1011.0
20260903114536 26 153 4.8 12.9 0.00 0.00 0.00 88 1010.8
20260903113041 26 188 6.4 12.9 0.00 0.00 0.00 88 1010.8
20260903111532 26 148 6.4 12.9 0.00 0.00 0.00 88 1010.9
20260903110032 26 98 4.8 11.3 0.00 0.00 0.00 88 1010.8
20260903104528 26 165 4.8 12.9 0.00 0.00 0.00 88 1010.6
20260903103029 26 175 3.2 9.7 0.00 0.00 0.00 87 1010.5
20260903101527 26 177 4.8 11.3 0.00 0.00 0.00 87 1010.5
20260903100027 26 175 3.2 12.9 0.00 0.00 0.00 87 1010.5
20260903094524 26 198 4.8 11.3 0.00 0.00 0.00 86 1010.5
20260903093029 26 155 3.2 12.9 0.00 0.00 0.00 86 1010.6
20260903091521 26 146 4.8 12.9 0.00 0.00 0.00 85 1010.9
20260903090023 26 186 4.8 19.3 0.00 0.00 0.00 85 1010.8
20260903084523 26 169 4.8 14.5 0.00 0.00 0.00 84 1010.8
20260903083017 26 150 4.8 14.5 0.00 0.00 0.00 84 1010.8
20260903081516 26 160 1.6 12.9 0.00 0.00 0.00 83 1010.9
20260903080015 26 124 3.2 14.5 0.00 0.00 0.00 82 1010.8
20260903074513 26 156 3.2 14.5 0.00 0.00 0.00 81 1010.9
20260903073012 26 176 6.4 12.9 0.00 0.00 0.00 81 1010.9
20260903071511 26 165 3.2 11.3 0.00 0.00 0.00 81 1011.0
20260903070010 26 139 3.2 8.0 0.00 0.00 0.00 81 1011.1
20260903064508 26 150 4.8 11.3 0.00 0.00 0.00 81 1011.1
20260903063006 26 124 4.8 11.3 0.00 0.00 0.00 81 1011.3
20260903061506 26 83 3.2 12.9 0.00 0.00 0.00 80 1011.3
20260903060004 26 102 4.8 11.3 0.00 0.00 0.00 80 1011.4
20260903054502 26 163 3.2 17.7 0.00 0.00 0.00 79 1011.5
20260903053100 27 129 3.2 14.5 0.00 0.00 0.00 78 1011.4
20260903051603 27 128 6.4 12.9 0.00 0.00 0.00 76 1011.3
20260903050056 27 146 4.8 14.5 0.00 0.00 0.00 74 1011.3
20260903044555 27 93 3.2 12.9 0.00 0.00 0.00 73 1011.2
20260903043053 27 88 3.2 9.7 0.00 0.00 0.00 72 1011.2
20260903041557 27 150 1.6 12.9 0.00 0.00 0.00 71 1011.2
20260903040053 27 83 9.7 19.3 0.00 0.00 0.00 71 1011.3
20260903034559 27 105 4.8 14.5 0.00 0.00 0.00 74 1011.3
20260903033051 28 62 3.2 14.5 0.00 0.00 0.00 73 1011.2
20260903031552 27 116 3.2 12.9 0.00 0.00 0.00 72 1010.9